Location: Arboyeti
(42.1122°N, 44.6017°E)
Time: 16:47:54
(UTC+00:00)

Cosmos 2292 Rocket - Pass Details

Date: 19 April 2021
Orbit: 380 x 1448 km, 83.0° (Epoch: 06 May)

Event Time Altitude Azimuth Distance (km) Brightness Sun altitude
Rises 17:51:21 0° 350° (N) 4,062 8.5 -21.1°
Reaches altitude 10° 17:54:21 10° 349° (N) 2,938 7.7 -21.5°
Maximum altitude 18:01:01 71° 267° (W) 924 4.4 -22.5°
Enters shadow 18:03:28 33° 192° (SSW) 1,319 4.9 -22.8°
